sat.trackr.live / text

‹ back to catalog

FLOCK 4Q-2

NORAD 58320 · 2023-174BS

PAYLOAD ACTIVE UNKNOWN

§ Identity

Operator
Country
US
Launch date
2023-11-11
Launch site
AFWTR
Launch vehicle
Mass (kg)
RCS (m²)

Purposes: earth_obs

External: N2YO · Heavens-Above · Gunter

§ Orbital elements

Epoch: 2026-09-19T22:23:25.977120Z

Period
92.68 min
Inclination
97.3809°
Eccentricity
0.0006095
Mean motion
15.53752745 rev/d
Perigee alt
401.6 km
Apogee alt
409.9 km
Semi-major
6,783.9 km
B*
3.4596e-4
RAAN
353.9034°
Arg perigee
144.0305°
Mean anomaly
216.1359°
Rev number
16,029

§ Raw data

FLOCK 4Q-21 58320U 23174BS  26262.93293955  .00022110  00000+0  34596-3 0  99932 58320  97.3809 353.9034 0006095 144.0305 216.1359 15.53752745160299

JSON: /api/v1/satellites/58320 · /tle

For live sub-satellite position, see the globe view (requires WebGL).

§ Visibility from observer

Set your observer location to see the next 7 days of passes ≥ 10°. The values pass through the URL so the page stays shareable.

No JS? Fill the form by hand. The geolocation button needs JavaScript.